| time (UTC) | temp F | wind direction | speed knots | gust knots | rain 1hr in | rain 24hr in | rain mn in | humidity % | barometer mb |
| 20260503233102 | 60 | 237 | 2.6 | 8.7 | 0.00 | 0.00 | 0.00 | 53 | 1001.3 |
| 20260503231600 | 60 | 263 | 3.5 | 7.8 | 0.00 | 0.00 | 0.00 | 51 | 1001.3 |
| 20260503224559 | 60 | 248 | 3.5 | 10.4 | 0.00 | 0.00 | 0.00 | 52 | 1001.3 |
| 20260503223058 | 61 | 233 | 2.6 | 7.8 | 0.00 | 0.00 | 0.00 | 52 | 1001.3 |
| 20260503221601 | 60 | 257 | 3.5 | 12.2 | 0.00 | 0.00 | 0.00 | 55 | 1001.3 |
| 20260503220056 | 60 | 288 | 2.6 | 8.7 | 0.00 | 0.00 | 0.00 | 56 | 1001.3 |
| 20260503214555 | 60 | 231 | 3.5 | 10.4 | 0.00 | 0.00 | 0.00 | 59 | 1001.3 |
| 20260503213054 | 60 | 326 | 2.6 | 8.7 | 0.00 | 0.00 | 0.00 | 59 | 1001.3 |
| 20260503211554 | 60 | 214 | 1.7 | 8.7 | 0.00 | 0.00 | 0.00 | 59 | 1001.3 |
| 20260503210053 | 60 | 153 | 2.6 | 8.7 | 0.00 | 0.00 | 0.00 | 57 | 1001.3 |
| 20260503204552 | 59 | 157 | 1.7 | 7.0 | 0.00 | 0.00 | 0.00 | 65 | 1001.3 |
| 20260503203055 | 59 | 218 | 1.7 | 5.2 | 0.00 | 0.00 | 0.00 | 67 | 1001.3 |
| 20260503201552 | 59 | 269 | 1.7 | 7.8 | 0.00 | 0.00 | 0.00 | 65 | 1001.3 |
| 20260503200054 | 58 | 251 | 1.7 | 6.1 | 0.00 | 0.00 | 0.00 | 68 | 1001.3 |
| 20260503194557 | 59 | 271 | 0.9 | 6.1 | 0.00 | 0.00 | 0.00 | 63 | 1001.3 |
| 20260503193047 | 59 | 276 | 3.5 | 8.7 | 0.00 | 0.00 | 0.00 | 63 | 1001.3 |
| 20260503191547 | 58 | 295 | 1.7 | 7.0 | 0.00 | 0.00 | 0.00 | 66 | 1001.3 |
| 20260503190043 | 59 | 280 | 1.7 | 8.7 | 0.00 | 0.00 | 0.00 | 65 | 1001.3 |
| 20260503184541 | 58 | 283 | 0.9 | 7.8 | 0.00 | 0.00 | 0.00 | 67 | 1001.3 |
| 20260503183038 | 58 | 186 | 1.7 | 5.2 | 0.00 | 0.00 | 0.00 | 68 | 1001.3 |
| 20260503181537 | 57 | 299 | 1.7 | 6.1 | 0.00 | 0.00 | 0.00 | 69 | 1001.3 |
| 20260503180036 | 57 | 287 | 0.9 | 6.1 | 0.00 | 0.00 | 0.00 | 72 | 1001.3 |
| 20260503174535 | 57 | 278 | 0.9 | 6.1 | 0.00 | 0.00 | 0.00 | 70 | 1001.3 |
| 20260503173038 | 57 | 279 | 0.9 | 7.8 | 0.00 | 0.00 | 0.00 | 67 | 1001.3 |
| 20260503171543 | 57 | 284 | 1.7 | 7.0 | 0.00 | 0.00 | 0.00 | 65 | 1001.3 |
| 20260503081524 | 38 | 91 | 0.9 | 5.2 | 0.00 | 0.01 | 0.00 | 80 | 1001.3 |
| 20260503071521 | 37 | 101 | 0.0 | 3.5 | 0.00 | 0.03 | 0.00 | 82 | 1001.3 |
| 20260503054510 | 38 | 124 | 0.0 | 1.7 | 0.00 | 0.08 | 0.00 | 79 | 1001.3 |
| 20260503053010 | 38 | 124 | 0.0 | 2.6 | 0.00 | 0.08 | 0.00 | 79 | 1001.3 |
| 20260503051508 | 38 | 114 | 0.0 | 0.0 | 0.00 | 0.08 | 0.00 | 79 | 1001.3 |
| 20260503050015 | 39 | 117 | 0.0 | 0.0 | 0.00 | 0.08 | 0.00 | 78 | 1001.3 |
| 20260503044505 | 39 | 116 | 0.0 | 0.0 | 0.00 | 0.09 | 0.00 | 78 | 1001.3 |
| 20260503043004 | 39 | 116 | 0.0 | 0.0 | 0.00 | 0.09 | 0.00 | 77 | 1001.3 |
| 20260503041600 | 40 | 116 | 0.0 | 0.0 | 0.00 | 0.09 | 0.00 | 77 | 1001.3 |
| 20260503040116 | 40 | 116 | 0.0 | 0.0 | 0.00 | 0.09 | 0.00 | 76 | 1001.3 |
| 20260503034557 | 41 | 116 | 0.0 | 0.0 | 0.00 | 0.09 | 0.09 | 74 | 1001.3 |
| 20260503033056 | 42 | 115 | 0.9 | 1.7 | 0.00 | 0.09 | 0.09 | 72 | 1001.3 |
| 20260503031605 | 43 | 98 | 0.0 | 0.9 | 0.00 | 0.09 | 0.09 | 69 | 1001.3 |
| 20260503030055 | 44 | 217 | 0.0 | 2.6 | 0.00 | 0.09 | 0.09 | 65 | 1001.3 |
| 20260503024555 | 44 | 155 | 0.0 | 1.7 | 0.00 | 0.09 | 0.09 | 66 | 1001.3 |
| 20260503023054 | 44 | 181 | 0.0 | 2.6 | 0.00 | 0.09 | 0.09 | 65 | 1001.3 |
| 20260503021554 | 44 | 282 | 0.9 | 2.6 | 0.00 | 0.09 | 0.09 | 66 | 1001.3 |
| 20260503020055 | 44 | 290 | 0.9 | 2.6 | 0.00 | 0.09 | 0.09 | 65 | 1001.3 |
| 20260503014608 | 44 | 269 | 0.0 | 4.3 | 0.00 | 0.09 | 0.09 | 66 | 1001.3 |
| 20260503013050 | 44 | 279 | 0.9 | 3.5 | 0.00 | 0.09 | 0.09 | 68 | 1001.3 |
| 20260503011555 | 44 | 266 | 0.9 | 3.5 | 0.00 | 0.09 | 0.09 | 68 | 1001.3 |
| 20260503010049 | 44 | 188 | 0.9 | 4.3 | 0.00 | 0.09 | 0.09 | 67 | 1001.3 |
| 20260503004548 | 43 | 279 | 0.9 | 3.5 | 0.00 | 0.09 | 0.09 | 67 | 1001.3 |
| 20260503003049 | 43 | 294 | 0.0 | 2.6 | 0.00 | 0.09 | 0.09 | 67 | 1001.3 |
| 20260503001559 | 43 | 224 | 0.0 | 1.7 | 0.00 | 0.09 | 0.09 | 66 | 1001.3 |
| 20260503000047 | 43 | 263 | 0.0 | 1.7 | 0.00 | 0.09 | 0.09 | 68 | 1001.3 |
| 20260502234551 | 43 | 288 | 0.0 | 2.6 | 0.00 | 0.09 | 0.09 | 69 | 1001.3 |